• In Belarus
  • List of Countries
  • For 7 days
  • Water Temperature
  • Satellite Maps
  • Weather Map
  • Weather Widgets
  • user-avatar
    Login

    Hourly Weather Knubr

    Today, 19 September, Wednesday

    Time Temperature Precipitation Wind Pressure Humidity
    00:00 +12°C° 0 mm 2 mps 749 mmHg 90%
    01:00 +12°C° 0 mm 2 mps 749 mmHg 91%
    02:00 +10°C° 0 mm 2 mps 749 mmHg 93%
    03:00 +10°C° 0 mm 2 mps 749 mmHg 93%
    04:00 +10°C° 0 mm 2 mps 749 mmHg 93%
    05:00 +10°C° 0 mm 2 mps 750 mmHg 93%
    06:00 +12°C° 0 mm 2 mps 749 mmHg 88%
    07:00 +12°C° 0 mm 3 mps 749 mmHg 83%
    08:00 +14°C° 0 mm 3 mps 750 mmHg 76%
    09:00 +17°C° 0 mm 4 mps 750 mmHg 72%
    10:00 +18°C° 0 mm 4 mps 750 mmHg 67%
    11:00 +20°C° 0 mm 4 mps 750 mmHg 62%
    12:00 +21°C° 0 mm 5 mps 749 mmHg 60%
    13:00 +22°C° 0 mm 5 mps 749 mmHg 59%
    14:00 +23°C° 0 mm 5 mps 749 mmHg 57%
    15:00 +22°C° 0 mm 4 mps 749 mmHg 62%
    16:00 +21°C° 0 mm 4 mps 749 mmHg 66%
    17:00 +20°C° 0 mm 3 mps 748 mmHg 71%
    18:00 +19°C° 0 mm 3 mps 748 mmHg 75%
    19:00 +18°C° 0 mm 3 mps 748 mmHg 79%
    20:00 +16°C° 0 mm 3 mps 748 mmHg 83%
    21:00 +16°C° 0 mm 3 mps 748 mmHg 85%
    22:00 +16°C° 0 mm 3 mps 748 mmHg 87%
    23:00 +14°C° 0 mm 3 mps 748 mmHg 89%

    Tomorrow, 20 September, Thursday

    Time Temperature Precipitation Wind Pressure Humidity
    00:00 +14°C° 0 mm 3 mps 748 mmHg 90%
    01:00 +14°C° 0 mm 3 mps 748 mmHg 91%
    02:00 +14°C° 0 mm 3 mps 748 mmHg 92%
    03:00 +14°C° 0 mm 3 mps 748 mmHg 93%
    04:00 +13°C° 0 mm 3 mps 748 mmHg 93%
    05:00 +13°C° 0 mm 3 mps 748 mmHg 94%
    06:00 +16°C° 0 mm 3 mps 748 mmHg 89%
    07:00 +17°C° 0 mm 4 mps 748 mmHg 85%
    08:00 +18°C° 0 mm 4 mps 748 mmHg 80%
    09:00 +20°C° 0 mm 4 mps 748 mmHg 74%
    10:00 +22°C° 0 mm 5 mps 748 mmHg 69%
    11:00 +23°C° 0 mm 5 mps 748 mmHg 63%
    12:00 +25°C° 0 mm 5 mps 748 mmHg 61%
    13:00 +25°C° 0 mm 5 mps 748 mmHg 59%
    14:00 +26°C° 0 mm 5 mps 748 mmHg 57%
    15:00 +25°C° 0 mm 4 mps 748 mmHg 62%
    16:00 +24°C° 0 mm 3 mps 748 mmHg 66%
    17:00 +22°C° 0 mm 3 mps 748 mmHg 71%
    18:00 +21°C° 0 mm 3 mps 748 mmHg 76%
    19:00 +19°C° 0 mm 2 mps 748 mmHg 80%
    20:00 +18°C° 0 mm 2 mps 748 mmHg 84%
    21:00 +17°C° 0 mm 2 mps 748 mmHg 85%
    22:00 +17°C° 0 mm 2 mps 749 mmHg 87%
    23:00 +16°C° 0 mm 2 mps 749 mmHg 88%

    Day after tomorrow, 21 September, Friday

    Time Temperature Precipitation Wind Pressure Humidity
    00:00 +16°C° 0 mm 1 mps 749 mmHg 89%
    01:00 +15°C° 0 mm 1 mps 749 mmHg 89%
    02:00 +15°C° 0 mm 1 mps 749 mmHg 90%
    03:00 +15°C° 0 mm 1 mps 749 mmHg 90%
    04:00 +14°C° 0 mm 1 mps 750 mmHg 91%
    05:00 +14°C° 0 mm 1 mps 750 mmHg 91%
    06:00 +15°C° 0 mm 1 mps 750 mmHg 86%
    07:00 +18°C° 0 mm 1 mps 750 mmHg 81%
    08:00 +19°C° 0 mm 1 mps 750 mmHg 76%
    09:00 +21°C° 0 mm 1 mps 751 mmHg 68%
    10:00 +22°C° 0 mm 1 mps 751 mmHg 61%
    11:00 +24°C° 0 mm 1 mps 751 mmHg 54%
    12:00 +23°C° 0 mm 0 mps 751 mmHg 51%
    13:00 +23°C° 0 mm 0 mps 751 mmHg 48%
    14:00 +24°C° 0 mm 0 mps 750 mmHg 45%
    15:00 +23°C° 0 mm 0 mps 750 mmHg 49%
    16:00 +22°C° 0 mm 0 mps 750 mmHg 53%
    17:00 +21°C° 0 mm 0 mps 750 mmHg 58%
    18:00 +22°C° 0 mm 1 mps 750 mmHg 59%
    19:00 +21°C° 0 mm 1 mps 750 mmHg 61%
    20:00 +20°C° 0 mm 1 mps 750 mmHg 63%
    21:00 +19°C° 0 mm 1 mps 750 mmHg 64%
    22:00 +18°C° 0 mm 2 mps 750 mmHg 66%
    23:00 +17°C° 0 mm 2 mps 750 mmHg 68%

    22 September, Saturday

    Time Temperature Precipitation Wind Pressure Humidity
    00:00 +17°C° 0 mm 2 mps 750 mmHg 69%
    01:00 +16°C° 0 mm 2 mps 750 mmHg 71%
    02:00 +16°C° 0 mm 2 mps 750 mmHg 72%
    03:00 +16°C° 0 mm 2 mps 750 mmHg 74%
    04:00 +16°C° 0 mm 2 mps 750 mmHg 75%
    05:00 +15°C° 0 mm 2 mps 749 mmHg 76%
    06:00 +17°C° 0 mm 3 mps 749 mmHg 73%
    07:00 +18°C° 0 mm 3 mps 749 mmHg 70%
    08:00 +19°C° 0 mm 4 mps 749 mmHg 67%
    09:00 +21°C° 0 mm 4 mps 749 mmHg 62%
    10:00 +23°C° 0 mm 4 mps 749 mmHg 58%
    11:00 +25°C° 0 mm 5 mps 749 mmHg 53%
    12:00 +26°C° 0 mm 5 mps 748 mmHg 51%
    13:00 +26°C° 0 mm 5 mps 748 mmHg 49%
    14:00 +27°C° 0 mm 5 mps 748 mmHg 47%
    15:00 +26°C° 0 mm 4 mps 747 mmHg 52%
    16:00 +23°C° 0 mm 4 mps 747 mmHg 58%
    17:00 +22°C° 0 mm 3 mps 747 mmHg 63%
    18:00 +21°C° 0 mm 3 mps 747 mmHg 64%
    19:00 +20°C° 0 mm 3 mps 746 mmHg 65%
    20:00 +19°C° 0 mm 3 mps 746 mmHg 67%
    21:00 +19°C° 0 mm 3 mps 746 mmHg 66%
    22:00 +18°C° 0 mm 3 mps 746 mmHg 66%
    23:00 +18°C° 0 mm 4 mps 745 mmHg 65%

    23 September, Sunday

    Time Temperature Precipitation Wind Pressure Humidity
    00:00 +18°C° 0 mm 4 mps 745 mmHg 64%
    01:00 +17°C° 0 mm 4 mps 745 mmHg 64%
    02:00 +17°C° 0 mm 4 mps 744 mmHg 63%
    03:00 +17°C° 0 mm 4 mps 744 mmHg 62%
    04:00 +17°C° 0 mm 4 mps 743 mmHg 61%
    05:00 +16°C° 0 mm 5 mps 742 mmHg 60%
    06:00 +17°C° 0 mm 5 mps 742 mmHg 59%
    07:00 +17°C° 0 mm 5 mps 742 mmHg 58%
    08:00 +19°C° 0 mm 6 mps 741 mmHg 57%
    09:00 +20°C° 0 mm 6 mps 741 mmHg 55%
    10:00 +21°C° 0 mm 6 mps 741 mmHg 54%
    11:00 +22°C° 0 mm 7 mps 741 mmHg 52%
    12:00 +20°C° 0.1 mm 7 mps 741 mmHg 59%
    13:00 +17°C° 0.1 mm 7 mps 741 mmHg 66%
    14:00 +15°C° 0.1 mm 7 mps 741 mmHg 73%
    15:00 +12°C° 1.3 mm 7 mps 742 mmHg 77%
    16:00 +10°C° 1.3 mm 7 mps 742 mmHg 82%
    17:00 +8°C° 1.3 mm 7 mps 743 mmHg 86%
    18:00 +8°C° 0.2 mm 6 mps 743 mmHg 86%
    19:00 +9°C° 0.2 mm 6 mps 744 mmHg 85%
    20:00 +9°C° 0.2 mm 5 mps 744 mmHg 85%
    21:00 +9°C° 0 mm 5 mps 745 mmHg 87%
    22:00 +8°C° 0 mm 5 mps 745 mmHg 88%
    23:00 +8°C° 0 mm 4 mps 745 mmHg 90%

    24 September, Monday

    Time Temperature Precipitation Wind Pressure Humidity
    00:00 +8°C° 0 mm 4 mps 745 mmHg 91%
    01:00 +7°C° 0 mm 4 mps 746 mmHg 92%
    02:00 +7°C° 0 mm 4 mps 746 mmHg 93%
    03:00 +8°C° 0 mm 3 mps 746 mmHg 93%
    04:00 +7°C° 0 mm 3 mps 746 mmHg 94%
    05:00 +7°C° 0 mm 2 mps 747 mmHg 95%
    06:00 +8°C° 0 mm 3 mps 747 mmHg 90%
    07:00 +9°C° 0 mm 3 mps 747 mmHg 86%
    08:00 +10°C° 0 mm 3 mps 748 mmHg 81%
    09:00 +12°C° 0 mm 3 mps 748 mmHg 73%
    10:00 +13°C° 0 mm 3 mps 748 mmHg 65%
    11:00 +16°C° 0 mm 3 mps 748 mmHg 57%
    12:00 +16°C° 0 mm 3 mps 748 mmHg 53%
    13:00 +17°C° 0 mm 3 mps 748 mmHg 50%
    14:00 +17°C° 0 mm 3 mps 748 mmHg 46%
    15:00 +16°C° 0 mm 2 mps 747 mmHg 50%
    16:00 +15°C° 0 mm 2 mps 747 mmHg 54%
    17:00 +14°C° 0 mm 2 mps 747 mmHg 59%
    18:00 +14°C° 0 mm 2 mps 747 mmHg 59%
    19:00 +12°C° 0 mm 3 mps 747 mmHg 59%
    20:00 +11°C° 0 mm 3 mps 747 mmHg 59%
    21:00 +11°C° 0 mm 3 mps 747 mmHg 59%
    22:00 +11°C° 0 mm 3 mps 747 mmHg 59%
    23:00 +11°C° 0 mm 3 mps 747 mmHg 60%
    Show more